Галимый

Россия / Магаданская область     62°21′15″N   155°57′28″E
темп.,
°C
ветер,
м/с
пор.,
м/с
влажн.,
%
обл.,
%
осадки,
мм/ч
давл.,
гПа
погр.,
м
22 октября, пт
пт2223:00−24ссз22935 0.0 101522
02:00−24ссз229557 0.0 101419
05:00−24ссз229553 0.0 101519
08:00−25ссз229519 0.0 101416
11:00−19с22843 0.0 1011102
14:00−17ссв12815 0.0 1009130
17:00−22ссз11955 0.0 101010
20:00−23ссз219642 0.0 101112
23 октября, сб
сб2323:00−24ссз119529 0.0 101111
02:00−23ссз119496 0.0 101111
05:00−23ссз119389 0.0 101110
08:00−22ссз1193100 0.0 101110
11:00−17вюв1178100 0.0 101065
14:00−15в1175100 0.0 101099
17:00−16ссв1188100 0.0 101010
20:00−17с2288100 0.0 101127
24 октября, вс
вс2423:00−18с228895 0.0 101239
02:00−18с3386100 0.0 101277
05:00−18ссз338797 0.0 101356
08:00−20ссз3387100 0.0 101451
11:00−18ссз237936 0.0 1014132
14:00−16с23775 0.0 1014166
17:00−21ссз22925 0.0 101515
20:00−22ссз22892 0.0 101613
25 октября, пн
пн2523:00−22сз11865 0.0 101611
02:00−22сз11838 0.0 101410
05:00−22ю118499 0.0 101311
08:00−19ю2284100 0.0 101130
11:00−16ю2485100 0.0 1009111
14:00−13ю2393100 0.0 1007153
17:00−14ю1198100 0.0 100718
20:00−17зюз119969 0.0 10089
26 октября, вт
вт2623:00−16зсз1195100 0.0 10089
02:00−16ссз2293100 0.0 100813
05:00−18ссз329622 0.0 101016
08:00−19ссз229837 0.0 101216
11:00−15с22906 0.0 101283
14:00−14с22885 0.0 1013112
17:00−19ссз22975 0.0 101612
20:00−21ссз229822 0.0 101914